Simultaneous Nadir Overpasses (SNOs) Predictions

Prediction of SNOs between AQUA and NOAA-19 Satellite Orbit:

Table of predicted SNOs for the next 14.0 days since TLE Epoch: 3/16/2024
Index Date (AQUA) Time (AQUA) Lat,Lon (AQUA) SZA (AQUA ) Date (NOAA-19) Time (NOAA-19) Lat,Lon (NOAA-19) SZA (NOAA-19 ) Distance(km) Time Diff (sec)
1 03/17/2024 19:59:59 75.81,-124.07 76.72 03/17/2024 19:59:17 75.83,-124.17 76.75 3.51 42
2 03/17/2024 20:49:23 -75.90, 43.32 103.21 03/17/2024 20:50:10 -75.90, 43.35 103.21 0.89 47
3 03/20/2024 00:40:15 75.88, 165.70 75.92 03/20/2024 00:40:22 75.88, 165.80 75.92 2.76 7
4 03/22/2024 04:31:05 -75.84, -71.87 104.99 03/22/2024 04:30:26 -75.81, -71.89 105.00 2.93 39
5 03/22/2024 05:20:29 75.88, 95.66 75.05 03/22/2024 05:21:28 75.88, 95.58 75.05 2.02 59
6 03/24/2024 08:21:53 75.70, 50.87 74.02 03/24/2024 08:20:41 75.64, 50.01 73.98 24.93 72
7 03/24/2024 09:11:19 -75.88,-142.01 105.81 03/24/2024 09:11:31 -75.86,-141.95 105.83 2.99 12
8 03/26/2024 13:02:08 75.84, -19.55 73.30 03/26/2024 13:01:42 75.85, -19.49 73.31 1.98 26
9 03/26/2024 13:51:32 -75.91, 147.87 106.64 03/26/2024 13:52:36 -75.90, 147.98 106.66 3.28 64
10 03/28/2024 16:52:56 -75.81, 102.87 107.59 03/28/2024 16:51:46 -75.79, 102.86 107.60 2.44 70
11 03/28/2024 17:42:20 75.86, -89.64 72.46 03/28/2024 17:42:47 75.87, -89.63 72.46 0.49 27



Historial Predications of SNOs between AQUA and NOAA-19
